DateTimeUTC,F1_A11,F1_S11,BsB_S11,BsG_S11,BsR_S11,BbsB_S11,BbsG_S11,BbsR_S11,BaB_A11,BaG_A11,BaR_A11,Tu_S11,T_S11,Uu_S11,U_S11,P_S11,T1_A11
2021-07-30T12:00:00Z,00040200,20000000,,,,,,,0000.24,0000.11,0000.44,18.8,25.1,08.7,05.9,0684.0,31.1
2021-07-30T12:01:00Z,00040200,20000000,,,,,,,0000.01,0000.40,0000.43,18.8,25.1,08.7,05.9,0684.0,31.1
2021-07-30T12:02:00Z,00040200,20000000,,,,,,,0000.07,-000.16,-000.62,18.8,25.1,08.7,05.9,0684.0,31.1
2021-07-30T12:03:00Z,00040200,60000000,,,,,,,0000.76,0000.94,0000.81,18.8,25.1,08.7,05.9,0684.0,31.1
2021-07-30T12:04:00Z,00040200,40000000,0010.71,0007.61,0004.48,0001.22,0001.31,0000.87,0002.04,0001.77,0001.26,18.9,25.0,08.5,05.8,0684.9,31.1
2021-07-30T12:05:00Z,00040200,00000000,0012.23,0008.43,0004.66,0001.46,0000.97,0000.63,0002.94,0002.42,0002.00,18.9,25.0,08.6,05.9,0685.0,31.1
2021-07-30T12:06:00Z,00040200,00000000,0013.07,0009.48,0005.01,0001.31,0001.27,0000.90,0002.41,0002.26,0001.82,18.9,25.0,08.7,06.0,0685.0,31.1
2021-07-30T12:07:00Z,00040200,00000000,0014.39,0009.39,0005.62,0001.36,0001.02,0000.97,0003.15,0002.94,0001.97,19.0,25.0,08.8,06.1,0685.0,31.1
2021-07-30T12:08:00Z,00040200,00000000,0013.14,0008.98,0005.16,0001.29,0000.99,0000.63,0002.31,0002.40,0001.96,19.0,25.0,08.9,06.2,0684.9,31.1
2021-07-30T12:09:00Z,00040200,00000000,0011.06,0007.55,0004.20,0001.36,0000.79,0000.43,0002.00,0001.34,0001.19,19.0,25.0,08.9,06.2,0684.9,31.1
2021-07-30T12:10:00Z,00040200,00000000,0011.12,0007.22,0004.27,0001.22,0000.87,0000.57,0002.04,0001.99,0001.49,19.0,25.0,08.9,06.1,0684.9,31.1
2021-07-30T12:11:00Z,00040200,00000000,0010.20,0006.23,0003.65,0001.23,0001.12,0000.58,0001.88,0001.66,0001.49,19.0,25.0,08.6,06.0,0684.9,31.1
2021-07-30T12:12:00Z,00040200,00000000,0010.62,0006.88,0004.27,0000.85,0000.81,0000.63,0001.81,0001.97,0000.90,19.1,25.0,08.6,06.0,0684.9,31.1
2021-07-30T12:13:00Z,00040200,00000000,0010.75,0006.54,0004.00,0001.19,0000.71,0000.78,0002.13,0002.00,0002.03,19.1,25.0,08.6,05.9,0685.0,31.1
2021-07-30T12:14:00Z,00040200,00000000,0010.70,0007.61,0004.06,0001.90,0000.75,0000.48,0002.26,0001.44,0001.55,19.1,25.0,08.8,06.1,0684.9,31.1
2021-07-30T12:15:00Z,00040200,00000000,0010.63,0007.65,0004.29,0001.03,0000.74,0000.85,0002.09,0002.29,0001.40,19.1,25.1,08.7,06.0,0685.0,31.1
2021-07-30T12:16:00Z,00040200,00000000,0010.47,0007.77,0004.75,0001.26,0001.11,0000.65,0001.91,0001.56,0001.22,19.1,25.1,08.7,06.0,0685.0,31.1
2021-07-30T12:17:00Z,00040200,00000000,0010.18,0007.45,0004.60,0001.00,0000.83,0001.20,0002.28,0002.09,0001.39,19.1,25.0,08.6,06.0,0684.9,31.1
2021-07-30T12:18:00Z,00040200,00000000,0011.19,0006.78,0004.66,0001.36,0000.81,0000.85,0001.89,0002.16,0001.25,19.1,25.1,08.6,06.0,0684.9,31.1
2021-07-30T12:19:00Z,00040200,00000000,0010.29,0007.81,0004.93,0000.75,0001.08,0000.88,0002.27,0001.93,0001.94,19.2,25.1,08.8,06.1,0684.9,31.1
2021-07-30T12:20:00Z,00040200,00000000,0011.82,0007.27,0004.27,0000.94,0000.83,0000.49,0001.87,0001.47,0000.96,19.2,25.1,08.5,05.9,0684.9,31.1
2021-07-30T12:21:00Z,00040200,00000000,0010.41,0007.19,0004.49,0000.53,0000.95,0000.34,0001.80,0001.98,0001.54,19.2,25.1,08.6,06.0,0684.9,31.1
2021-07-30T12:22:00Z,00040200,00000000,0010.59,0007.47,0004.20,0001.47,0000.81,0000.54,0002.54,0002.03,0001.83,19.2,25.1,08.5,05.9,0684.9,31.1
2021-07-30T12:23:00Z,00040200,00000000,0010.91,0008.05,0004.38,0001.89,0000.88,0000.58,0002.21,0002.10,0001.28,19.2,25.2,08.6,06.0,0684.9,31.1
2021-07-30T12:24:00Z,00040200,00000000,0011.35,0008.01,0004.22,0001.23,0000.88,0000.64,0002.04,0001.98,0001.74,19.3,25.2,08.6,06.0,0684.9,31.1
2021-07-30T12:25:00Z,00040200,00000000,0011.05,0007.75,0004.44,0000.98,0000.74,0000.91,0002.41,0002.23,0001.41,19.3,25.2,08.7,06.1,0684.9,31.1
2021-07-30T12:26:00Z,00040200,00000000,0010.73,0008.18,0004.65,0001.27,0001.34,0000.31,0002.28,0001.84,0001.79,19.3,25.2,08.7,06.1,0684.9,31.1
2021-07-30T12:27:00Z,00040200,00000000,0010.42,0006.99,0003.58,0001.05,0000.52,0000.70,0001.62,0002.06,0001.09,19.3,25.2,08.6,06.0,0684.9,31.2
2021-07-30T12:28:00Z,00040200,00000000,0011.26,0007.23,0004.68,0001.11,0000.99,0000.78,0002.40,0001.74,0001.58,19.3,25.2,08.6,06.0,0684.9,31.1
2021-07-30T12:29:00Z,00040200,00000000,0012.50,0007.64,0004.50,0001.63,0001.14,0000.62,0002.54,0002.13,0001.58,19.4,25.2,08.7,06.1,0684.9,31.1
2021-07-30T12:30:00Z,00040200,00000000,0009.56,0006.00,0003.94,0000.61,0000.57,0000.54,0001.59,0001.72,0001.19,19.4,25.3,08.6,06.0,0684.9,31.1
2021-07-30T12:31:00Z,00040200,00000000,0010.68,0007.07,0003.70,0001.21,0000.80,0000.33,0001.87,0001.75,0001.53,19.4,25.3,08.6,06.0,0684.9,31.1
2021-07-30T12:32:00Z,00040200,00000000,0012.22,0008.31,0004.74,0000.81,0001.09,0000.97,0002.40,0002.15,0001.71,19.4,25.3,08.7,06.1,0684.9,31.1
2021-07-30T12:33:00Z,00040200,00000000,0012.16,0008.30,0004.43,0000.97,0001.03,0000.69,0002.55,0002.48,0001.80,19.4,25.3,08.7,06.1,0684.9,31.1
2021-07-30T12:34:00Z,00040200,00000000,0011.41,0008.51,0004.97,0000.80,0000.94,0000.85,0002.40,0001.76,0001.49,19.5,25.3,08.9,06.2,0684.9,31.1
2021-07-30T12:35:00Z,00040200,00000000,0012.26,0008.68,0005.13,0001.30,0000.80,0000.92,0002.37,0002.45,0001.90,19.5,25.3,08.8,06.1,0684.9,31.1
2021-07-30T12:36:00Z,00040200,00000000,0012.14,0008.02,0004.21,0000.91,0001.09,0000.88,0002.78,0002.03,0001.57,19.5,25.4,08.8,06.2,0684.9,31.1
2021-07-30T12:37:00Z,00040200,00000000,0012.09,0007.35,0004.19,0000.86,0001.01,0000.63,0002.01,0002.31,0001.85,19.5,25.4,08.7,06.1,0684.9,31.1
2021-07-30T12:38:00Z,00040200,00000000,0010.55,0007.45,0004.31,0001.41,0001.22,0000.58,0002.12,0001.80,0001.27,19.5,25.4,08.9,06.3,0684.9,31.2
2021-07-30T12:39:00Z,00040200,00000000,0012.17,0008.16,0004.82,0001.14,0001.04,0001.20,0002.72,0002.83,0002.07,19.5,25.4,08.9,06.2,0684.9,31.2
2021-07-30T12:40:00Z,00040200,00000000,0012.56,0008.41,0005.36,0001.53,0000.99,0000.77,0002.86,0002.16,0001.73,19.5,25.4,09.1,06.4,0684.9,31.1
2021-07-30T12:41:00Z,00040200,00000000,0011.38,0008.08,0004.81,0001.33,0001.12,0000.66,0001.53,0001.60,0001.39,19.6,25.4,08.8,06.2,0684.9,31.1
2021-07-30T12:42:00Z,00040200,00000000,0011.17,0007.17,0004.43,0000.96,0000.78,0000.94,0002.10,0002.18,0001.56,19.6,25.4,08.8,06.2,0684.9,31.1
2021-07-30T12:43:00Z,00040200,00000000,0009.29,0006.62,0004.09,0001.55,0000.59,0000.96,0001.88,0001.63,0001.47,19.6,25.4,08.8,06.2,0684.9,31.1
2021-07-30T12:44:00Z,00040200,00000000,0010.03,0007.09,0003.75,0001.21,0000.67,0000.70,0001.59,0001.57,0001.07,19.6,25.5,08.8,06.2,0684.9,31.1
2021-07-30T12:45:00Z,00040200,00000000,0009.61,0006.61,0003.83,0001.02,0001.02,0000.61,0001.67,0001.48,0001.05,19.7,25.5,08.7,06.1,0684.9,31.2
2021-07-30T12:46:00Z,00040200,00000000,0010.52,0007.20,0004.19,0000.96,0000.71,0000.59,0002.79,0002.56,0001.75,19.7,25.5,08.7,06.1,0684.9,31.2
2021-07-30T12:47:00Z,00040200,00000000,0009.73,0006.48,0003.45,0001.21,0000.77,0000.73,0001.66,0001.03,0000.73,19.7,25.5,08.8,06.1,0684.9,31.2
2021-07-30T12:48:00Z,00040200,00000000,0008.37,0005.75,0003.08,0001.22,0000.75,0000.39,0001.27,0001.38,0001.00,19.7,25.5,08.7,06.1,0684.9,31.2
2021-07-30T12:49:00Z,00040200,00000000,0008.33,0005.28,0002.68,0000.86,0000.68,0000.47,0001.49,0001.31,0001.48,19.7,25.6,08.6,06.1,0684.9,31.1
2021-07-30T12:50:00Z,00040200,00000000,0007.86,0005.25,0003.50,0000.58,0000.54,0000.73,0001.33,0001.62,0001.19,19.7,25.6,08.7,06.1,0684.9,31.2
2021-07-30T12:51:00Z,00040200,00000000,0008.50,0005.87,0003.35,0001.48,0000.79,0000.51,0001.95,0001.34,0001.14,19.8,25.6,08.7,06.1,0684.9,31.2
2021-07-30T12:52:00Z,00040200,00000000,0008.82,0005.85,0003.84,0001.01,0000.70,0000.79,0001.67,0001.68,0000.86,19.8,25.6,08.5,06.0,0684.9,31.2
2021-07-30T12:53:00Z,00140200,00000000,0007.34,0005.52,0003.48,0001.16,0000.53,0000.58,0001.17,0001.09,0000.89,19.8,25.6,08.6,06.0,0684.9,31.2
2021-07-30T12:53:37Z,00140200,00000000,0007.34,0005.52,0003.48,0001.16,0000.53,0000.58,,,,19.8,25.6,08.6,06.0,0684.9,31.2
2021-07-30T12:53:38Z,,00000000,0007.34,0005.52,0003.48,0001.16,0000.53,0000.58,,,,19.8,25.6,08.6,06.0,0684.9,
2021-07-30T12:53:45Z,00000200,00000000,0007.34,0005.52,0003.48,0001.16,0000.53,0000.58,,,,19.8,25.6,08.6,06.0,0684.9,31.1
2021-07-30T12:54:00Z,00000200,00000000,0007.99,0005.37,0003.09,0001.40,0000.74,0000.63,0001.69,0000.99,0001.10,19.8,25.6,08.3,05.8,0684.9,31.1
2021-07-30T12:55:00Z,00000200,00000000,0008.10,0005.11,0003.20,0000.85,0000.86,0000.94,0002.20,0001.75,0001.27,19.8,25.6,08.3,05.8,0684.9,31.1
2021-07-30T12:56:00Z,00000200,00000000,0009.06,0006.29,0003.26,0001.23,0000.76,0000.46,0001.84,0001.94,0001.29,19.8,25.6,08.4,05.9,0684.9,31.1
2021-07-30T12:57:00Z,00000200,40000000,,,,,,,0000.38,0000.54,0000.34,19.9,25.7,08.7,06.1,0684.8,31.1
2021-07-30T12:58:00Z,00000200,60000000,,,,,,,0000.18,-000.28,0000.08,19.7,25.8,08.4,05.8,0683.9,31.1
2021-07-30T12:59:00Z,00000200,20000000,,,,,,,-000.16,0000.00,0000.10,19.7,25.9,08.3,05.7,0683.9,31.1
